Date,TemperatureHighF,TemperatureAvgF,TemperatureLowF,DewpointHighF,DewpointAvgF,DewpointLowF,HumidityHigh,HumidityAvg,HumidityLow,PressureMaxIn,PressureMinIn,WindSpeedMaxMPH,WindSpeedAvgMPH,GustSpeedMaxMPH,PrecipitationSumIn
2013-5-1,88.0,78.8,68.0,32.0,27.7,23.0,21,15,10,30.10,29.88,32,19,38,0.00
2013-5-2,91.0,76.6,64.0,43.0,27.7,19.0,33,17,10,30.19,30.06,28,10,29,0.00
2013-5-3,93.0,74.7,54.0,48.0,40.2,34.0,66,33,12,30.06,29.76,13,6,0,0.00
2013-5-4,90.0,77.5,61.0,50.0,36.3,30.0,59,24,12,29.77,29.52,33,14,33,0.00
2013-5-5,72.0,63.9,55.0,50.0,46.3,45.0,71,54,37,29.82,29.55,16,7,18,0.00
2013-5-6,72.0,63.2,55.0,55.0,51.5,48.0,93,66,46,29.97,29.81,14,6,23,0.00
2013-5-7,73.0,64.5,57.0,55.0,51.1,-99.9,87,64,40,30.03,29.96,12,5,0,0.00
2013-5-8,77.0,64.8,57.0,54.0,52.3,48.0,82,65,38,30.09,30.00,14,5,22,0.00
2013-5-9,82.0,66.0,52.0,57.0,52.9,48.0,93,65,39,30.13,30.00,15,5,16,0.00
2013-5-10,88.0,67.4,52.0,61.0,52.3,-99.9,93,64,37,30.15,30.02,10,4,0,0.00
2013-5-11,93.0,72.7,54.0,61.0,54.9,-99.9,93,59,29,30.11,29.99,13,3,0,0.00
2013-5-12,97.0,74.3,54.0,55.0,50.4,41.0,93,50,14,30.10,29.96,17,6,20,0.00
2013-5-13,91.0,73.0,54.0,59.0,52.4,46.0,87,53,21,30.05,29.89,10,5,0,0.00
2013-5-14,90.0,74.2,57.0,55.0,51.9,46.0,87,50,24,29.90,29.83,16,7,20,0.00
2013-5-15,84.0,66.9,54.0,52.0,47.6,43.0,76,52,28,30.00,29.88,13,6,0,0.00
2013-5-16,81.0,65.2,55.0,52.0,32.5,-99.9,72,46,26,29.97,29.88,17,8,23,0.00
2013-5-17,79.0,62.7,48.0,50.0,42.0,-99.9,93,55,27,30.02,29.93,15,5,17,0.00
2013-5-18,82.0,65.2,46.0,52.0,45.7,36.0,93,54,22,30.13,30.02,14,4,17,0.00
2013-5-19,86.0,73.4,61.0,48.0,36.9,25.0,59,29,10,30.13,29.97,27,13,36,0.00
2013-5-20,90.0,78.3,66.0,45.0,37.5,28.0,45,24,11,30.01,29.87,23,12,29,0.00
2013-5-21,84.0,69.5,55.0,48.0,38.5,16.0,76,38,8,29.94,29.83,17,8,22,0.00
2013-5-22,73.0,61.5,46.0,37.0,26.2,9.0,57,30,9,30.01,29.85,29,10,35,0.00
2013-5-23,75.0,61.7,45.0,43.0,37.6,30.0,81,44,19,29.98,29.86,14,5,17,0.00
2013-5-24,81.0,64.4,46.0,45.0,39.4,27.0,81,44,13,29.99,29.88,17,5,17,0.00
2013-5-25,81.0,63.1,46.0,46.0,45.1,41.0,87,55,29,29.99,29.90,15,6,0,0.00
2013-5-26,81.0,65.9,50.0,48.0,45.9,43.0,81,52,27,30.06,29.96,17,5,21,0.00
2013-5-27,70.0,60.4,50.0,57.0,50.1,45.0,87,69,45,30.09,29.98,15,6,18,0.00
2013-5-28,79.0,68.1,57.0,55.0,52.8,48.0,93,61,34,29.98,29.87,13,5,0,0.00
2013-5-29,82.0,73.1,63.0,54.0,48.8,45.0,63,43,26,29.92,29.84,16,7,18,0.00
2013-5-30,86.0,69.8,52.0,48.0,44.1,37.0,87,45,19,29.96,29.88,15,5,20,0.00
2013-5-31,97.0,77.2,63.0,48.0,38.4,21.0,55,29,7,30.00,29.87,24,11,30,0.00